Location: Breezy Point Observatory
(38.9725°N, 81.7133°W)
Time: 01:45:00
(UTC-04:00)

Hubble Space Telescope - Visible Passes

Search period start: 01 August 2015 00:00
Search period end: 11 August 2015 00:00
Orbit: 541 x 545 km, 28.5° (Epoch: 31 July)

Date Brightness Start Highest point End Pass type
(mag) Time Alt. Az. Time Alt. Az. Time Alt. Az.
03 Aug 3.2 22:26:23 10° SSW 22:26:38 11° SSW 22:26:38 11° SSW visible
04 Aug 2.8 22:17:11 10° SW 22:18:35 15° SSW 22:18:35 15° SSW visible
05 Aug 2.5 22:08:04 10° SW 22:10:23 18° S 22:10:23 18° S visible
06 Aug 2.4 21:59:01 10° SW 22:01:58 19° S 22:02:04 19° S visible
07 Aug 2.4 21:50:01 10° SW 21:52:58 19° S 21:53:40 18° SSE visible
08 Aug 2.4 21:41:03 10° SW 21:44:00 19° S 21:45:13 17° SSE visible
09 Aug 2.6 21:32:09 10° SW 21:35:00 18° S 21:36:42 14° SSE visible
10 Aug 2.7 21:23:19 10° SW 21:26:01 17° S 21:28:11 12° SSE visible
